Velovelo
Português Nederlands 日本語 中文
Español English čeština slovenčina
русский italiano polski norsk
français Deutsch svenska عربي
 
 vorige Seite
 einem Freund senden
 Um zu drucken
 ---> La Corima Drôme Provençale 2015 : Résultats du 77 km

Résultats électroniques réalisés par KMS informatique (08 92 68 33 13 - 0,34 €/mn) notre partenaire chronométrage.

ClasDos.NomPrénomCatC.c.Temps.....Moy...
1 329 SERRAILLE TRISTAN A 1 01:59:01 38.82
2 1715 MARTIN HUGO A 2 01:59:03 38.81
3 285 HOLUIGUE ANTOINE A 3 02:03:21 37.45
4 1633 THOMAS NICOLAS A 4 02:03:22 37.45
5 269 MANTA GUILLAUME B 1 02:03:37 37.37
6 781 LE-LUE KEVIN A 5 02:03:39 37.36
7 276 BRAYMAND YANN A 6 02:03:40 37.36
8 281 BRES NICOLAS A 7 02:03:45 37.33
9 115 BERTOLOTTI LAURENT C 1 02:03:51 37.30
10 1097 GUIGOURES SEBASTIEN B 2 02:03:53 37.29
11 282 CARTAL RICHARD C 2 02:03:53 37.29
12 334 DUPOUY JEROME B 3 02:03:53 37.29
13 500 GILLET ROMUALD C 3 02:03:53 37.29
14 131 LOIRET BENOIT C 4 02:03:53 37.29
15 246 PILLET XAVIER B 4 02:03:53 37.29
16 724 MATHIOT LUDOVIC B 5 02:03:54 37.29
17 1619 DREVON ANTOINE B 6 02:03:54 37.29
18 86 GONZALVEZ LILIAN A 8 02:03:54 37.29
19 226 AIGON SEBASTIEN A 9 02:03:57 37.27
20 696 GALLEGO MIKAEL B 7 02:03:57 37.27
21 1000 GATHIER THIBAULT A 10 02:03:57 37.27
22 1622 MAZOYER VICTOR A 11 02:03:58 37.27
23 191 JOUFFRET DIDIER D 1 02:04:00 37.26
24 1389 RIZZO IGOR B 8 02:04:01 37.25
25 987 GUERIN THOMAS A 12 02:04:04 37.24
26 176 BULTEZ-PERZIGUIAN JEAN A 13 02:04:04 37.24
27 250 GALLO CHRISTIAN D 2 02:04:04 37.24
28 291 CROS JEREMY B 9 02:04:05 37.23
29 1601 LOIRET JEAN-JOSEPH F 1 02:04:07 37.22
30 338 MULOT JEROME C 5 02:04:19 37.16
31 78 BLANC SEBASTIEN B 10 02:04:20 37.16
32 76 GUICHARDAZ BASTIEN B 11 02:04:21 37.15
33 1626 CHENEVIER CORENTIN A 14 02:04:27 37.12
34 98 HEYRAUD VINCENT B 12 02:04:28 37.12
35 213 LACADEE FRED C 6 02:09:28 35.68
36 77 GALY ERIC D 3 02:09:41 35.63
37 1624 CLUSEL PATRICK D 4 02:09:41 35.63
38 51 GILBERT LUC E 1 02:09:43 35.62
39 87 CUBEDO PIERRE E 2 02:09:43 35.62
40 283 TAILLEZ LAURENT C 7 02:09:43 35.62
41 316 LAUDET ALAIN D 5 02:09:44 35.61
42 1063 PEGEOT VINCENT B 13 02:09:44 35.61
43 348 BIVILLE PATRICE C 8 02:09:44 35.61
44 180 STADLER ERIC D 6 02:09:46 35.60
45 1306 BRES DAVID C 9 02:09:47 35.60
46 279 BRUTTOMESSO DANIEL D 7 02:09:49 35.59
47 884 CHOUKLATI OTHMANE B 14 02:09:50 35.58
48 238 GENEVES ROLAND D 8 02:09:58 35.55
49 125 DIB WALID C 10 02:10:11 35.49
50 164 BENOIT PHILIPPE C 11 02:10:21 35.44
51 1411 GUENO OLIVIER C 12 02:10:53 35.30
52 624 MENOCCI GABRIEL B 15 02:10:58 35.28
53 1040 ZURFLUH UGO A 15 02:11:01 35.26
54 1600 LECLERCQ CHRISTOPHE C 13 02:12:55 34.76
55 919 ARNAUD EMMANUEL C 14 02:12:56 34.75
56 497 SEQUEIRA ANTONI B 16 02:12:56 34.75
57 1458 PASCAL OLIVIER C 15 02:12:57 34.75
58 1204 VINDRIER STEPHANE B 17 02:12:57 34.75
59 1494 MARTIN JULIEN B 18 02:12:57 34.75
60 940 SOLER DIEGO D 9 02:12:59 34.74
61 1241 VAISSEAU VINCENT D 10 02:12:59 34.74
62 458 GUIGAL THIERRY D 11 02:13:00 34.74
63 310 GUENIN MATHIEU C 16 02:16:44 33.79
64 1042 CLODION ALAIN A 16 02:16:46 33.78
65 1621 SERNA JACQUES C 17 02:16:48 33.77
66 1275 ROUMIEUX MIGUEL D 12 02:16:48 33.77
67 20 CAMPANI EROS F 2 02:16:49 33.77
68 1062 BOURNARDEL ANTHONY A 17 02:16:49 33.77
69 765 CLEMENT SERGE D 13 02:18:12 33.43
70 422 NIVON FABIEN C 18 02:18:17 33.41
71 999 THUILLIER LOUIS F 3 02:18:18 33.41
72 114 BILLON FRANCK C 19 02:18:18 33.41
73 697 SERVANT DIDIER D 14 02:18:19 33.40
74 1625 CIOFFI JEROME B 19 02:18:20 33.40
75 480 FAURE LAURENT C 20 02:18:22 33.39
76 1081 PAVIET-SALOMON CHRISTIAN B 20 02:18:23 33.39
77 1096 ALMEIDA SILVERIO C 21 02:18:24 33.38
78 1098 BORTHIEWIEZ JONATHAN B 21 02:18:27 33.37
79 70 CLEMENT PIERRE F 4 02:18:29 33.36
80 1184 MONTALIBET KEVIN B 22 02:18:30 33.36
81 201 VIZIER JEAN-MICHEL C 22 02:18:30 33.36
82 516 CHARLIER CLEMENT A 18 02:18:40 33.32
83 1603 VEZIAN BRUNO C 23 02:18:52 33.27
84 746 SPRENG FREDERIC C 24 02:18:57 33.25
85 1705 REYNIER CHRISTOPHE D 15 02:18:58 33.25
86 1070 AYME GILLES D 16 02:18:59 33.24
87 939 ALLIER JEAN-LUC D 17 02:19:03 33.23
88 566 GASBARRE PATRICK C 25 02:19:13 33.19
89 253 BRIANT JACQUES F 5 02:19:13 33.19
90 1598 GUILBERT JEAN-PIERRE D 18 02:19:13 33.19
91 747 GUILLEN PHILIPPE D 19 02:19:13 33.19
92 1268 MABILON JACQUES D 20 02:19:14 33.18
93 823 DROLEZ THIERRY D 21 02:19:19 33.16
94 1379 AMATE PATRICE B 23 02:19:19 33.16
95 19 LAPIERRE CHRISTOPHE C 26 02:19:19 33.16
96 734 EXTRA DENIS D 22 02:19:22 33.15
97 272 DEBANNE WILLIAM C 27 02:19:24 33.14
98 510 LANTHEAUME XAVIER A 19 02:19:42 33.07
99 443 BACHELARD ERIC D 23 02:21:02 32.76
100 463 GARCIA THOMAS C 28 02:22:48 32.35
101 1240 DUCOURTIOUX PATRICE D 24 02:22:48 32.35
102 865 DELAPLACE BASTIEN B 24 02:23:24 32.22
103 284 FROMENT VICTOR A 20 02:25:06 31.84
104 1438 DELARQUE DAVID C 29 02:25:26 31.77
105 1425 COQUILLAT MAURICE F 6 02:25:37 31.73
106 1250 DUPLESSY BENJAMIN A 21 02:25:40 31.72
107 1594 CASTILLON LOIC B 25 02:25:40 31.72
108 1297 JAMET BENOIT A 22 02:25:42 31.71
109 1403 SPECOGNA MIKAEL C 30 02:25:43 31.71
110 311 LAULAGNET FLORENTIN A 23 02:25:46 31.69
111 1269 POL GEORGES D 25 02:25:49 31.68
112 130 BENDALI BOUALEM C 31 02:25:53 31.67
113 1076 PAILLER ERWAN C 32 02:25:56 31.66
114 1512 HOLUIGUE PATRICE C 33 02:25:57 31.65
115 1419 PEYRIN ARNAUD B 26 02:25:58 31.65
116 177 PASTORELLI-DALMASSO CRISTEL W1 1 02:26:01 31.64
117 233 CALVIERE PHILIPPE C 34 02:26:01 31.64
118 1323 GAUCHIER THIERRY C 35 02:26:02 31.64
119 360 PAPIN JEAN-MARC C 36 02:26:03 31.63
120 1017 METAYER MARC D 26 02:26:04 31.63
121 1166 GOUYACHE MAURICE B 27 02:26:06 31.62
122 60 BARON ARNAUD B 28 02:26:06 31.62
123 1039 CARTAL GUILLAUME A 24 02:26:06 31.62
124 948 MOULIN PATRICK D 27 02:26:09 31.61
125 113 BILLON JEAN-LUC F 7 02:26:09 31.61
126 487 COCONAS DIDIER D 28 02:26:10 31.61
127 853 MORAND DIDIER C 37 02:26:10 31.61
128 240 BERTHON FABIEN C 38 02:26:11 31.60
129 1567 SAPPEY LILIAN-CAROLE C 39 02:26:12 31.60
130 984 PICART JEROME C 40 02:26:13 31.60
131 1339 MINAUD STEPHEN D 29 02:26:14 31.59
132 484 BLACHIER REMI A 25 02:26:16 31.59
133 1337 DUCRUET GERARD D 30 02:26:19 31.58
134 1495 TUPIN MARJOLAINE W1 2 02:26:19 31.58
135 211 GALLO ALEXANDRE E 3 02:26:20 31.57
136 1721 CUMONT GERARD F 8 02:26:35 31.52
137 104 RAYMOND PHILIPPE C 41 02:26:44 31.49
138 1352 MENARD FRANCK C 42 02:26:55 31.45
139 1406 DEFFAY PATRICK A 26 02:27:05 31.41
140 1422 CHAPON PHILIPPE C 43 02:27:36 31.30
141 668 DUMAINE RENAUD B 29 02:27:36 31.30
142 1523 BESSON THOMAS B 30 02:28:06 31.20
143 1506 SANTIAGO ANTOINE D 31 02:28:22 31.14
144 1200 RICCI CYRIL B 31 02:30:01 30.80
145 1370 MOREL FLORIAN B 32 02:30:02 30.79
146 1638 RUFFIEUX AMANDINE W1 3 02:30:04 30.79
147 1713 BRAVO DANIEL D 32 02:30:13 30.76
148 885 MARCHAL PAULINE W1 4 02:30:13 30.76
149 967 BENSA ANDRE F 9 02:30:14 30.75
150 1171 VASSE FABRICE C 44 02:30:18 30.74
151 744 OUHMID DRISS C 45 02:30:20 30.73
152 451 GLEZ FREDERIC B 33 02:30:22 30.72
153 1536 LAQUET PATRICE B 34 02:30:30 30.70
154 1351 PEVERENGO CEDRIC A 27 02:30:55 30.61
155 79 PINA FABIEN B 35 02:32:11 30.36
156 592 FABRE THIERRY C 46 02:33:36 30.08
157 1670 HERMAND PIERRE F 10 02:33:50 30.03
158 1299 PERRIER LUC D 33 02:33:52 30.03
159 548 HERVET RENE F 11 02:33:53 30.02
160 1048 GOMEZ CHRISTIAN F 12 02:33:55 30.02
161 889 SEVE RENE F 13 02:33:58 30.01
162 93 FAYSSE OLIVIER C 47 02:34:39 29.87
163 490 ROSSI ERIC D 34 02:34:46 29.85
164 489 CHENEVAS CHRISTIANE W3 1 02:34:47 29.85
165 488 MORICE JEAN-LUC E 4 02:34:53 29.83
166 1477 BEUGNOT PASCAL D 35 02:34:55 29.82
167 1340 TORNATO VIRGILE C 48 02:35:19 29.75
168 641 SCHWIND MICHEL F 14 02:35:39 29.68
169 814 MATHIEU STEPHANIE W2 1 02:35:49 29.65
170 870 REFFET LUDOVIC B 36 02:35:50 29.65
171 1593 HERBAUT BAPTISTE A 28 02:36:10 29.58
172 1246 VANGELL CHARLES C 49 02:36:11 29.58
173 1552 VALENTINI GILLES C 50 02:36:34 29.51
174 1007 MARTARESCHE CHRISTOPHER C 51 02:36:37 29.50
175 1301 DEGRANGE FABIEN C 52 02:38:17 29.19
176 1156 LAURAIRE GILBERT E 5 02:38:18 29.19
177 1127 ANDRE STEPHANE C 53 02:38:20 29.18
178 691 BUGNI PATRICK D 36 02:38:25 29.16
179 1401 GUILHOT JEAN-DENIS C 54 02:38:27 29.16
180 1258 DARGET-LACOSTE VALERIE W2 2 02:38:27 29.16
181 1430 JUET MARC D 37 02:38:28 29.15
182 858 BEAUMONT LAURENT C 55 02:38:29 29.15
183 590 SELVA GERALD D 38 02:38:33 29.14
184 1606 LEVEQUE PHILIPPE C 56 02:39:01 29.05
185 1717 JOANNET DANIEL B 37 02:39:01 29.05
186 1716 MENICHINI EDDY D 39 02:39:02 29.05
187 937 BIASINI ERIC C 57 02:39:03 29.05
188 751 OBOZIL-GACHE GEORGES C 58 02:39:03 29.05
189 891 REVERTEGAT SYLVAIN B 38 02:39:10 29.03
190 709 BESSON SYLVIE W3 2 02:39:17 29.00
191 791 BRIONNE SERGE D 40 02:39:18 29.00
192 1058 ARCIS FABIEN C 59 02:39:40 28.94
193 760 LORETTE MARIE W3 3 02:40:12 28.84
194 346 COAT DAMIEN B 39 02:40:12 28.84
195 1188 FERRAND DIDIER D 41 02:40:13 28.84
196 170 LORETTE CHRISTOPHE D 42 02:40:16 28.83
197 828 DEBANNE CAROLE W2 3 02:40:24 28.80
198 1553 SCHMITT MIKAEL C 60 02:40:41 28.75
199 1288 TIBERGHIEN GERARD E 6 02:40:44 28.74
200 1239 DUCOURTIOUX-EVRARD ELISABETH W2 4 02:40:47 28.73
201 802 DEILLON CATHERINE W3 4 02:40:48 28.73
202 1706 MICHAUT SYLVAIN D 43 02:40:50 28.73
203 829 FOSSE AURELIE W1 5 02:40:54 28.71
204 830 FOSSE LUC E 7 02:40:55 28.71
205 673 GEORGE DAVID B 40 02:41:30 28.61
206 922 MUSSET BERNARD E 8 02:41:44 28.57
207 671 GRYZKA EMMANUEL C 61 02:42:33 28.42
208 1186 VILTROUVE LUDOVIC B 41 02:42:35 28.42
209 1568 LAFONT PIERRICK B 42 02:42:50 28.37
210 677 MESSINA SAMUEL B 43 02:42:56 28.36
211 1330 GUILLERMIN NICOLAS B 44 02:42:57 28.35
212 330 GAUTHIER SEBASTIEN B 45 02:42:57 28.35
213 659 RUFFIER MICHEL B 46 02:43:02 28.34
214 1334 ORSEL THOMAS A 29 02:43:05 28.33
215 906 BRETHES MARGOT W1 6 02:43:06 28.33
216 478 NOSEDA JEAN-CHARLES C 62 02:44:16 28.13
217 565 JOURDAIN CYRIL C 63 02:44:57 28.01
218 1391 JOURDAIN FRANCK C 64 02:44:57 28.01
219 583 DANELLO FABIEN C 65 02:45:01 28.00
220 976 BUREL FRANCK B 47 02:46:17 27.78
221 1226 DE-PREESTER THOMAS A 30 02:46:19 27.78
222 824 SOULARD PASCALE W3 5 02:46:41 27.72
223 1072 GIACOMELLI DANIEL C 66 02:47:11 27.63
224 470 COCONAS DIDIER D 44 02:47:16 27.62
225 1657 FABRE CHRISTIAN E 9 02:47:24 27.60
226 530 NEANT THIERRY C 67 02:48:39 27.39
227 56 LONJARET CHRISTINE W3 6 02:49:10 27.31
228 506 PEZERIL NORBERT C 68 02:49:11 27.31
229 1444 BOUMEZIREN ARNAUD C 69 02:49:15 27.30
230 1037 JAY SAMUEL A 31 02:49:26 27.27
231 304 D-ALEO GIUSEPPE C 70 02:49:27 27.26
232 301 MIRA FABIEN D 45 02:49:28 27.26
233 305 TICHON GILLES C 71 02:49:28 27.26
234 300 LARONCE TONY B 48 02:49:29 27.26
235 959 VERDAUD ANTONY C 72 02:49:39 27.23
236 692 MENAGER JACKY D 46 02:49:48 27.21
237 501 LANJARD BENJAMIN B 49 02:49:54 27.19
238 1126 CHEVALIER STEPHANE C 73 02:49:56 27.19
239 789 FALCONE CECILE W2 5 02:49:56 27.19
240 713 PAEZ JEAN-LUC D 47 02:49:57 27.18
241 642 TOUNY CHRISTIAN F 15 02:50:03 27.17
242 299 BOUZIGE DAVID C 74 02:50:40 27.07
243 1446 BOUMEZIREN BENJAMIN C 75 02:50:44 27.06
244 388 LECLERCQ MICHEL D 48 02:50:51 27.04
245 1329 VARIGAULT JEAN-CLAUDE D 49 02:50:52 27.04
246 1153 BILLON GUILLAUME C 76 02:50:53 27.04
247 975 SUDOUR JEAN-FRANCOIS C 77 02:51:14 26.98
248 428 DEBARD YVETTE W3 7 02:51:16 26.98
249 859 JACOB STEPHANE C 78 02:51:17 26.97
250 1714 BRAVO FERNAND D 50 02:51:18 26.97
251 908 MALARET PATRICK E 10 02:52:23 26.80
252 1366 LENOIR MATTHIEU B 50 02:53:24 26.64
253 655 SOUBEYRAND DANIEL E 11 02:53:54 26.57
254 644 ALLIBERT SYLVAIN B 51 02:54:00 26.55
255 24 PAGLIA GIANNI C 79 02:54:22 26.50
256 22 GALLI VITO D 51 02:54:24 26.49
257 23 LEONARDI CARLO E 12 02:54:24 26.49
258 1121 HALGRAIN NICOLAS B 52 02:55:07 26.38
259 1122 GAGNIERE VIRGINIE W1 7 02:55:07 26.38
260 675 BROUCKE XAVIER B 53 02:55:08 26.38
261 879 KUSTER GWENDOLYNE W1 8 02:56:04 26.24
262 794 SIMONATO FRANCOISE W3 8 02:56:15 26.21
263 345 BERTONI LAURENT C 80 02:56:15 26.21
264 312 REVOL EMMANUEL C 81 02:56:16 26.21
265 795 MASERATI SIMON E 13 02:56:16 26.21
266 133 BARBEY DIEGO B 54 02:56:25 26.19
267 1033 SAMACOITS PIERRE D 52 02:56:34 26.17
268 295 PHILIPPOT MICHEL F 16 02:56:40 26.15
269 1634 JUVANON NATACHA W1 9 02:57:05 26.09
270 961 BRES PATRICE D 53 02:57:30 26.03
271 1420 CHANEAC PHILIPPE C 82 02:57:35 26.02
272 1551 COHEN SAMUEL C 83 02:57:45 25.99
273 294 UGHETTO GILLES C 84 02:57:52 25.97
274 1397 DEDIEU GAETAN B 55 02:58:18 25.91
275 1367 MONNIER PATRICK D 54 02:58:34 25.87
276 928 MAURY CHRISTIAN F 17 02:58:41 25.86
277 306 CAILHE PASCAL D 55 02:59:24 25.75
278 1605 LEPRINCE SEBASTIEN C 85 03:00:26 25.61
279 390 MAZZA JEAN-PIERRE F 18 03:01:41 25.43
280 1539 VERSTRAETE EMMANUEL D 56 03:02:53 25.26
281 1566 CARRO CHRISTIAN C 86 03:02:57 25.25
282 477 BOSQUET VALERIE W2 6 03:04:01 25.11
283 608 DIAF AHMED C 87 03:04:19 25.07
284 520 KUSTER FRANCK C 88 03:04:24 25.05
285 949 DUBOIS GERARD E 14 03:04:32 25.04
286 843 DELNESTE MARC B 56 03:04:37 25.02
287 762 BERGERON ELODIE W1 10 03:06:05 24.83
288 783 PONS CYRIL C 89 03:06:12 24.81
289 801 CAPPE JEAN-FRANCOIS D 57 03:06:34 24.76
290 526 RYDER UNA W2 7 03:06:36 24.76
291 888 DE-LADOUCETTE PHILIPPE F 19 03:06:50 24.73
292 36 CARRERA FERMI D 58 03:07:19 24.66
293 1499 DELRIEUX DIDIER C 90 03:07:26 24.65
294 718 ARIAS-VIDAL LORELLA W2 8 03:08:17 24.54
295 1423 CARTURAN DANIEL F 20 03:08:48 24.47
296 1084 BRUN RICHARD C 91 03:09:38 24.36
297 871 PONCERRY MONIQUE W2 9 03:09:44 24.35
298 140 KINDER SANDRINE W2 10 03:09:50 24.34
299 553 ADAN OLIVIER C 92 03:09:51 24.34
300 1169 MONTALA XAVIER C 93 03:10:23 24.27
301 594 LANTHEAUME CHRISTIAN E 15 03:10:36 24.24
302 569 PERCHE ELIOTT A 32 03:10:40 24.23
303 1038 LAMY FELIX A 33 03:10:52 24.21
304 1086 BALLANDREAU CHRISTOPHE B 57 03:11:34 24.12
305 573 GALZI JEAN-YVES C 94 03:11:38 24.11
306 1082 SKRZYPCZAK VINCENT B 58 03:11:41 24.10
307 1244 OTAMIAN PATRICK D 59 03:12:49 23.96
308 779 RAMILISON CHRISTOPHE C 95 03:14:59 23.69
309 320 LANTELME CHRISTINE W2 11 03:15:28 23.64
310 874 PONCERRY GUY D 60 03:15:41 23.61
311 1109 BACHELET RICHARD C 96 03:15:48 23.60
312 872 CRUVEILLER BERNARD F 21 03:15:50 23.59
313 518 RICHEVAUX JEAN-LUC E 16 03:17:39 23.37
314 809 IZIER JACQUELINE W3 9 03:17:49 23.35
315 296 ROUSSET MAURICE F 22 03:18:27 23.28
316 1637 BEN-AYED HATEM C 97 03:18:49 23.24
317 481 COTE-COLISSON CHRISTINE W3 10 03:19:03 23.21
318 459 SCOTT AUDREY W3 11 03:19:11 23.19
319 1078 JACOB FREDERIC B 59 03:19:45 23.13
320 1085 FEREZ OLIVIER C 98 03:20:09 23.08
321 904 PIERSON REJANE W2 12 03:20:33 23.04
322 425 MICHEL THIERRY D 61 03:20:56 22.99
323 1272 CROUZET RENE F 23 03:21:14 22.96
324 708 GONZAGUE BRUNO C 99 03:21:21 22.95
325 1265 BOUIS JEAN-LOUIS D 62 03:22:02 22.87
326 1077 VIDAL JEROME C 100 03:22:03 22.87
327 1075 LEONIEN MIKAEL C 101 03:22:04 22.86
328 397 TRACOL ANTHONY B 60 03:22:18 22.84
329 1087 SKRZYPLZAK GERARD E 17 03:22:49 22.78
330 1133 VERMILLARD ADRIEN A 34 03:23:37 22.69
331 1108 ZANON SERGE D 63 03:24:19 22.61
332 1105 BEDEJUS SERGE D 64 03:24:19 22.61
333 1443 MINFRAY JEROME C 102 03:24:20 22.61
334 303 AGUILAR JEAN-CHARLES D 65 03:24:36 22.58
335 1107 SCALVINI LAURENT C 103 03:25:47 22.45
336 1570 UGOLINI OLIVIER B 61 03:27:25 22.27
337 1341 JOLY YANN C 104 03:30:12 21.98
338 1110 BLANC CLAUDE D 66 03:31:51 21.81
339 1114 CHAMPION BERNARD C 105 03:31:53 21.80
340 1439 ROMAIN GERARD F 24 03:32:30 21.74
341 1576 BERTON MARYLENE W3 12 03:33:50 21.61
342 773 LAURENT SOPHIE W1 11 03:36:33 21.33
343 774 CASSARO JEAN-PHILIP B 62 03:36:33 21.33
344 822 DROLEZ CLARA W2 13 03:37:11 21.27
345 1595 CROUZET ROMAIN A 35 03:38:48 21.12
346 297 BESSON OLIVIER C 106 03:38:50 21.11
347 1277 DERVE ANDRE F 25 03:40:14 20.98
348 958 PALIX JEAN-MARC D 67 03:40:25 20.96
349 1106 REYNIER ANTHONY A 36 03:45:09 20.52
350 827 HEREAU SYLVIE W3 13 03:48:59 20.18
351 715 SCHAEFFNER BERNARD D 68 03:49:11 20.16
352 717 SCHAEFFNER ELISABETH W3 14 03:49:11 20.16
353 720 BAUDUIN NICOLAS C 107 03:51:32 19.95
354 721 LENVAIN ANNE-SOPHIE W2 14 03:51:34 19.95
355 1113 HENIN FABRICE C 108 03:52:10 19.90
356 1112 DHALLEINE STEPHANE C 109 03:52:10 19.90
357 1249 DESCHAMP NATHALIE W2 15 03:52:57 19.83
358 1104 COURBIS SANDRINE W2 16 03:54:20 19.72
359 1103 GRASSI CHRISTINE W3 15 03:54:20 19.72
360 1101 BEDEJUS MYRIAM W3 16 03:54:21 19.71
361 1102 DUCHAMP REJANE W3 17 03:54:21 19.71
362 302 ROBERT ALEXANDRE B 63 03:54:40 19.69
363 609 VALLOIR DAMIEN B 64 03:54:46 19.68
364 521 NAULLET FABIEN B 65 03:54:47 19.68
365 1215 VASSAL MARIE-LAURE W1 12 04:02:14 19.07

Haut 









Haut  
 Redaktion   Copyright Lesen: Hier klicken Um zu lesen !